Terminal Aerodrome Forecast
Issued by NWS Indianapolis, IN

Home | Current Version | Previous Version | Text Only | Print | Product List | Glossary On
Versions: 1 2 3 4 5 6 7 8 9 10 11 12 13 14 15 16 17 18 19 20 21 22 23 24
157
FTUS43 KIND 200827 AAA
TAFIND
TAF AMD
KIND 200827Z 2008/2112 VRB03KT P6SM FEW090=

USA.gov is the U.S. government's official web portal to all federal, state and local government web resources and services.